Regional Weather Roundup
Issued by NWS

Home | Current Version | Previous Version | Graphics & Text | Print | Product List | Glossary On
Versions: 1 2 3 4 5 6 7 8 9 10 11 12 13 14 15 16 17 18 19 20 21 22 23 24 25 26 27 28 29 30 31 32 33 34 35 36 37 38 39 40 41 42 43 44 45 46 47 48 49 50
000
ASUS43 KLSX 220359
RWRMO

WEATHER SUMMARY FOR MISSOURI
NATIONAL WEATHER SERVICE SPRINGFIELD MO
1100 PM CDT SUN SEP 21 2014

NOTE: "FAIR" INDICATES FEW OR NO CLOUDS BELOW 12,000 FEET WITH NO
       SIGNIFICANT WEATHER AND/OR OBSTRUCTIONS TO VISIBILITY.
       CURRENT SKY AND/OR WEATHER CONDITIONS ARE NOT AVAILABLE FOR
       CHILLICOTHE AND FARMINGTON.

MOZ001>031-035>038-043-044-053-054-220500-
...NORTHERN AND WESTERN MISSOURI...

CITY           SKY/WX    TMP DP  RH WIND       PRES   REMARKS
KANSAS CTY INT CLEAR     58  49  72 N8        30.25R
KANSAS C DTWN  CLEAR     62  51  67 N3        30.23R
LEE`S SUMMIT   CLEAR     59  50  72 N3        30.24R
ST JOSEPH      CLEAR     51  49  92 N6        30.25R
KIRKSVILLE     CLEAR     51  50  96 NW3       30.23R

$$
MOZ066>068-077>081-088>096-101>105-220500-
...SOUTHWEST MISSOURI...

CITY           SKY/WX    TMP DP  RH WIND       PRES   REMARKS
SPRINGFIELD    CLEAR     60  50  69 N6        30.20R
JOPLIN         CLEAR     60  50  69 N5        30.22R

$$
MOZ032>034-039>042-045>050-055>058-069>072-220500-
...CENTRAL MISSOURI...

CITY           SKY/WX    TMP DP  RH WIND       PRES   REMARKS
COLUMBIA       CLEAR     56  50  80 N8        30.21R
JEFFERSON CITY CLEAR     61  50  67 N8        30.20R
ROLLA          CLEAR     57  48  72 N6        30.18R
SEDALIA        CLEAR     58  50  75 N5        30.22R
OSAGE BEACH    CLEAR     61  46  59 N5        30.20R

$$
MOZ051-052-059>065-220500-
...EAST CENTRAL MISSOURI...

CITY           SKY/WX    TMP DP  RH WIND       PRES   REMARKS
ST LOUIS INTL  CLEAR     61  51  70 N8        30.18R
SPIRIT OF STL  CLEAR     62  52  69 N5        30.18R
ST CHARLES     CLEAR     59  51  75 N9        30.17R

$$
MOZ072>076-082>087-097>100-106>115-220500-
...SOUTH CENTRAL AND SOUTHEAST MISSOURI...

CITY           SKY/WX    TMP DP  RH WIND       PRES   REMARKS
CAPE GIRARDEAU CLEAR     64  50  60 N8        30.12R
FARMINGTON     CLEAR     61  46  59 N6        30.17S
POPLAR BLUFF   CLEAR     60  50  69 NW5       30.12R
WEST PLAINS    CLEAR     61  48  62 N6        30.19R

$$


USA.gov is the U.S. government's official web portal to all federal, state and local government web resources and services.